星链-4699 (STARLINK-4699 )

导读

STARLINK-4699是美国于2022年9月5日发射的星链卫星,属于SpaceX打造的星链卫星互联网星座的一部分。截至当前(2026年3月),该卫星已在轨运行超三年,承担着为全球范围提供低延迟、高速率的卫星互联网接入服务,推动全球网络覆盖尤其是偏远地区联网能力提升。

Basic Information
目录编号:
53716
目录名称:
STARLINK-4699
国际标识:
2022-107S
轨道中心:
EARTH
卫星名称:
星链-4699
卫星全名:
星链-4699 (STARLINK-4699 )
卫星状态:
在轨 (已飞行1461 天)
发射日期:
2022-09-05 UTC
国别 :
美国 (US)
星等 :
--
Orbit Information
数据来源 国际轨道数据 AOE轨道数据
星历时间 2026-09-05T09:06:49+0800
21小时前
查看轨道信息
2026-09-03T02:00:00+0800
3天前
查看轨道信息
半长轴 6840.874km 6840.855km
偏心率 0.0001364 0.0001284
轨道倾角 53.161° 53.157°
近地点辐角 88.591° 45.150°
升交点赤经 157.632° 168.369°
平近点角 271.525° 223.056°
近地点 461.803km 461.839km
远地点 463.671km 463.597km
周期 93.848分钟 93.848分钟
每日圈数 15.343887 15.343953
Detailed Information
固有亮度:
5
最大亮度:
2.5
卫星平台:
Starlink v1.5
覆盖范围:
全球
运营商:
太空探索技术公司
运营商所在国:
美国
制造商(研发单位):
太空探索技术公司
制造商所在国:
美国
使用方式:
暂无
Satellite Introduction
星链(Starlink)计划是由太空探索技术公司(SpaceX)提出的一个巨型低轨卫星互联网星座项目,计划在2019年至2024年间在太空搭建由约1.2万颗卫星组成的“星链”网络,其中1584颗将部署在地球上空550千米处的近地轨道,并从2020年开始工作。该卫星仍在工作。
2D Orbit Map
3D Orbit Map
Orbit Altitude Analysis Chart
Orbit Inclination Analysis Chart
Orbit Comprehensive Analysis Chart
View Comprehensive Chart
Conjunction Data List
Event ID Objects TCA Miss Dist (km) Collision Risk Probability Collision Risk Index (CRI) Action
CDM_260907-203705-371606-785821
2026-09-07T
20:37:23+0000
0.350 km
远距离
2.842826E-4 高风险 0.84
CDM_260907-203105-371606-521721
2026-09-07T
20:31:09+0000
0.961 km
远距离
2.475867E-5 中风险 0.63
CDM_260908-064705-371606-785821
2026-09-08T
06:47:01+0000
1.190 km
极远距离
8.868195E-6 低风险 0.54
CDM_260907-221105-371606-785821
2026-09-07T
22:11:10+0000
2.612 km
极远距离
1.066434E-6 低风险 0.36
CDM_260908-082005-371606-785821
2026-09-08T
08:20:49+0000
2.706 km
极远距离
1.011045E-6 低风险 0.35
CDM_260907-190305-371606-785821
2026-09-07T
19:03:35+0000
2.867 km
极远距离
9.368858E-7 极低风险 0.34